Time,TemperatureF,DewpointF,PressureIn,WindDirection,WindDirectionDegrees,WindSpeedMPH,WindSpeedGustMPH,Humidity,HourlyPrecipIn,Conditions,Clouds,dailyrainin,SoftwareType,DateUTC
2013-06-24 00:00:00,77.0,73.0,-100.00,SSE,160,4.0,-999.0,88,0.00,,,0.00,,2013-06-24 05:00:00,
2013-06-24 00:47:00,77.0,73.0,-100.00,SSE,160,4.0,-999.0,88,0.00,,,0.00,,2013-06-24 05:47:00,
2013-06-24 00:56:00,77.0,73.0,-100.00,SSE,160,4.0,-999.0,88,0.00,,,0.00,,2013-06-24 05:56:00,
2013-06-24 01:00:00,75.0,73.0,-100.00,SSE,159,3.0,-999.0,92,0.00,,,0.00,,2013-06-24 06:00:00,
2013-06-24 01:47:00,75.0,73.0,-100.00,SSE,159,3.0,-999.0,92,0.00,,,0.00,,2013-06-24 06:47:00,
2013-06-24 01:56:00,75.0,73.0,-100.00,SSE,159,3.0,-999.0,92,0.00,,,0.00,,2013-06-24 06:56:00,
2013-06-24 02:49:00,75.0,73.0,-100.00,SSE,156,2.0,-999.0,95,0.00,,,0.00,,2013-06-24 07:49:00,
2013-06-24 02:57:00,75.0,73.0,-100.00,SSE,156,2.0,-999.0,95,0.00,,,0.00,,2013-06-24 07:57:00,
2013-06-24 04:00:00,73.0,73.0,-100.00,SSE,162,3.0,-999.0,100,0.00,,,0.00,,2013-06-24 09:00:00,
2013-06-24 04:59:00,73.0,73.0,-100.00,SSE,162,3.0,-999.0,100,0.00,,,0.00,,2013-06-24 09:59:00,
2013-06-24 05:00:00,72.0,72.0,-100.00,SSE,166,4.0,-999.0,100,0.00,,,0.00,,2013-06-24 10:00:00,
2013-06-24 05:37:00,72.0,72.0,-100.00,SSE,166,4.0,-999.0,100,0.00,,,0.00,,2013-06-24 10:37:00,
2013-06-24 05:51:00,72.0,72.0,-100.00,SSE,166,4.0,-999.0,100,0.00,,,0.00,,2013-06-24 10:51:00,
2013-06-24 05:57:00,72.0,72.0,-100.00,SSE,166,4.0,-999.0,100,0.00,,,0.00,,2013-06-24 10:57:00,
2013-06-24 06:50:00,72.0,72.0,-100.00,SSE,162,3.0,-999.0,100,0.00,,,0.00,,2013-06-24 11:50:00,
2013-06-24 06:57:00,72.0,72.0,-100.00,SSE,162,3.0,-999.0,100,0.00,,,0.00,,2013-06-24 11:57:00,
2013-06-24 07:49:00,72.0,72.0,-100.00,SSE,154,4.0,-999.0,100,0.00,,,0.00,,2013-06-24 12:49:00,
2013-06-24 07:55:00,72.0,72.0,-100.00,SSE,154,4.0,-999.0,100,0.00,,,0.00,,2013-06-24 12:55:00,
2013-06-24 09:00:00,80.0,77.0,-100.00,SSW,197,6.0,-999.0,91,0.00,,,0.00,,2013-06-24 14:00:00,
2013-06-24 09:46:00,80.0,77.0,-100.00,SSW,197,6.0,-999.0,91,0.00,,,0.00,,2013-06-24 14:46:00,
2013-06-24 09:59:00,80.0,77.0,-100.00,SSW,197,6.0,-999.0,91,0.00,,,0.00,,2013-06-24 14:59:00,
2013-06-24 10:00:00,82.0,76.0,-100.00,South,188,10.0,-999.0,80,0.00,,,0.00,,2013-06-24 15:00:00,
2013-06-24 10:48:00,82.0,76.0,-100.00,South,188,10.0,-999.0,80,0.00,,,0.00,,2013-06-24 15:48:00,
2013-06-24 10:57:00,82.0,76.0,-100.00,South,188,10.0,-999.0,80,0.00,,,0.00,,2013-06-24 15:57:00,
2013-06-24 11:00:00,84.0,74.0,-100.00,SSW,194,8.0,-999.0,72,0.00,,,-99.99,,2013-06-24 16:00:00,
2013-06-24 11:45:00,84.0,74.0,-100.00,SSW,194,8.0,-999.0,72,0.00,,,-99.99,,2013-06-24 16:45:00,
2013-06-24 11:56:00,84.0,74.0,-100.00,SSW,194,8.0,-999.0,72,0.00,,,-99.99,,2013-06-24 16:56:00,
2013-06-24 12:00:00,86.0,74.0,-100.00,SSW,193,8.0,-999.0,67,0.00,,,-99.99,,2013-06-24 17:00:00,
2013-06-24 12:47:00,86.0,74.0,-100.00,SSW,193,8.0,-999.0,67,0.00,,,-99.99,,2013-06-24 17:47:00,
2013-06-24 12:57:00,86.0,74.0,-100.00,SSW,193,8.0,-999.0,67,0.00,,,-99.99,,2013-06-24 17:57:00,
2013-06-24 13:00:00,88.0,74.0,-100.00,SSW,194,9.0,-999.0,64,0.00,,,0.00,,2013-06-24 18:00:00,
2013-06-24 13:49:00,88.0,74.0,-100.00,SSW,194,9.0,-999.0,64,0.00,,,0.00,,2013-06-24 18:49:00,
2013-06-24 13:55:00,88.0,74.0,-100.00,SSW,194,9.0,-999.0,64,0.00,,,0.00,,2013-06-24 18:55:00,
2013-06-24 14:00:00,89.0,72.0,-100.00,South,180,10.0,-999.0,58,0.00,,,0.00,,2013-06-24 19:00:00,
2013-06-24 14:46:00,89.0,72.0,-100.00,South,180,10.0,-999.0,58,0.00,,,0.00,,2013-06-24 19:46:00,
2013-06-24 15:00:00,89.0,73.0,-100.00,SSE,167,10.0,-999.0,59,0.00,,,0.00,,2013-06-24 20:00:00,
2013-06-24 15:47:00,89.0,73.0,-100.00,SSE,167,10.0,-999.0,59,0.00,,,0.00,,2013-06-24 20:47:00,
2013-06-24 15:56:00,89.0,73.0,-100.00,SSE,167,10.0,-999.0,59,0.00,,,0.00,,2013-06-24 20:56:00,
2013-06-24 16:00:00,89.0,73.0,-100.00,SSE,166,11.0,-999.0,59,0.00,,,0.00,,2013-06-24 21:00:00,
2013-06-24 16:48:00,89.0,73.0,-100.00,SSE,166,11.0,-999.0,59,0.00,,,0.00,,2013-06-24 21:48:00,
2013-06-24 16:54:00,89.0,73.0,-100.00,SSE,166,11.0,-999.0,59,0.00,,,0.00,,2013-06-24 21:54:00,
2013-06-24 18:00:00,88.0,74.0,-100.00,SSE,168,6.0,-999.0,63,0.00,,,0.00,,2013-06-24 23:00:00,
2013-06-24 18:46:00,88.0,74.0,-100.00,SSE,168,6.0,-999.0,63,0.00,,,0.00,,2013-06-24 23:46:00,
2013-06-24 20:00:00,83.0,76.0,-100.00,SSE,156,3.0,-999.0,79,0.00,,,-99.99,,2013-06-25 01:00:00,
2013-06-24 20:46:00,83.0,76.0,-100.00,SSE,156,3.0,-999.0,79,0.00,,,-99.99,,2013-06-25 01:46:00,
2013-06-24 20:56:00,83.0,76.0,-100.00,SSE,156,3.0,-999.0,79,0.00,,,-99.99,,2013-06-25 01:56:00,
2013-06-24 21:00:00,80.0,75.0,-100.00,SE,139,3.0,-999.0,84,0.00,,,0.00,,2013-06-25 02:00:00,
2013-06-24 21:57:00,80.0,75.0,-100.00,SE,139,3.0,-999.0,84,0.00,,,0.00,,2013-06-25 02:57:00,
2013-06-24 22:00:00,79.0,75.0,-100.00,SSE,159,3.0,-999.0,87,0.00,,,0.00,,2013-06-25 03:00:00,
2013-06-24 23:00:00,80.0,75.0,-100.00,SE,146,4.0,-999.0,85,0.00,,,0.00,,2013-06-25 04:00:00,
2013-06-24 23:43:00,80.0,75.0,-100.00,SE,146,4.0,-999.0,85,0.00,,,0.00,,2013-06-25 04:43:00,
2013-06-24 23:52:00,80.0,75.0,-100.00,SE,146,4.0,-999.0,85,0.00,,,0.00,,2013-06-25 04:52:00,